| time (UTC) | temp F | wind direction | speed knots | gust knots | rain 1hr in | rain 24hr in | rain mn in | humidity % | barometer mb |
| 20260507134545 | 50 | 360 | 9.6 | 13.0 | 0.00 | 0.00 | 0.00 | 54 | 972.9 |
| 20260507133048 | 50 | 360 | 4.3 | 10.4 | 0.00 | 0.00 | 0.00 | 52 | 972.8 |
| 20260507131541 | 49 | 4 | 6.1 | 10.4 | 0.00 | 0.00 | 0.00 | 53 | 972.7 |
| 20260507130041 | 47 | 10 | 0.9 | 6.1 | 0.00 | 0.00 | 0.00 | 55 | 972.8 |
| 20260507124540 | 48 | 360 | 4.3 | 9.6 | 0.00 | 0.00 | 0.00 | 54 | 973.0 |
| 20260507123032 | 46 | 2 | 2.6 | 4.3 | 0.00 | 0.00 | 0.00 | 61 | 973.1 |
| 20260507121528 | 44 | 1 | 2.6 | 3.5 | 0.00 | 0.00 | 0.00 | 65 | 972.8 |
| 20260507120026 | 42 | 2 | 2.6 | 6.1 | 0.00 | 0.00 | 0.00 | 68 | 972.7 |
| 20260507114537 | 40 | 2 | 3.5 | 4.3 | 0.00 | 0.00 | 0.00 | 69 | 972.9 |
| 20260507113043 | 40 | 2 | 2.6 | 4.3 | 0.00 | 0.00 | 0.00 | 68 | 972.8 |
| 20260507111530 | 40 | 2 | 3.5 | 4.3 | 0.00 | 0.00 | 0.00 | 65 | 972.8 |
| 20260507110022 | 41 | 2 | 2.6 | 7.0 | 0.00 | 0.00 | 0.00 | 61 | 973.0 |
| 20260507104520 | 41 | 1 | 0.9 | 4.3 | 0.00 | 0.00 | 0.00 | 62 | 973.1 |
| 20260507103021 | 41 | 2 | 4.3 | 8.7 | 0.00 | 0.00 | 0.00 | 61 | 973.3 |
| 20260507101519 | 42 | 2 | 4.3 | 7.0 | 0.00 | 0.00 | 0.00 | 59 | 973.5 |
| 20260507100016 | 41 | 2 | 0.0 | 7.0 | 0.00 | 0.00 | 0.00 | 60 | 973.8 |
| 20260507094516 | 42 | 1 | 0.9 | 5.2 | 0.00 | 0.00 | 0.00 | 57 | 973.9 |
| 20260507093010 | 40 | 1 | 3.5 | 5.2 | 0.00 | 0.00 | 0.00 | 63 | 974.1 |
| 20260507091509 | 38 | 2 | 0.0 | 4.3 | 0.00 | 0.00 | 0.00 | 67 | 974.4 |
| 20260507090009 | 38 | 1 | 2.6 | 7.0 | 0.00 | 0.00 | 0.00 | 66 | 974.6 |
| 20260507084507 | 38 | 1 | 1.7 | 2.6 | 0.00 | 0.00 | 0.00 | 68 | 974.9 |
| 20260507083005 | 38 | 1 | 0.0 | 0.0 | 0.00 | 0.00 | 0.00 | 66 | 975.0 |
| 20260507081507 | 38 | 1 | 0.0 | 0.0 | 0.00 | 0.00 | 0.00 | 67 | 975.0 |
| 20260507080004 | 38 | 1 | 0.0 | 0.0 | 0.00 | 0.00 | 0.00 | 67 | 975.1 |
| 20260507074501 | 38 | 1 | 0.0 | 0.0 | 0.00 | 0.00 | 0.00 | 67 | 975.3 |
| 20260507073103 | 38 | 1 | 0.0 | 0.0 | 0.00 | 0.00 | 0.00 | 65 | 975.5 |
| 20260507071600 | 38 | 1 | 0.0 | 1.7 | 0.00 | 0.00 | 0.00 | 63 | 975.6 |
| 20260507070105 | 38 | 1 | 0.0 | 2.6 | 0.00 | 0.00 | 0.00 | 64 | 975.8 |
| 20260507064558 | 38 | 10 | 0.0 | 0.0 | 0.00 | 0.00 | 0.00 | 62 | 975.9 |
| 20260507063058 | 38 | 9 | 0.0 | 1.7 | 0.00 | 0.00 | 0.00 | 65 | 975.9 |
| 20260507061556 | 37 | 8 | 0.0 | 0.0 | 0.00 | 0.00 | 0.00 | 67 | 975.9 |
| 20260507060101 | 37 | 8 | 0.0 | 1.7 | 0.00 | 0.00 | 0.00 | 64 | 976.1 |
| 20260507054554 | 37 | 8 | 0.0 | 1.7 | 0.00 | 0.00 | 0.00 | 64 | 976.0 |
| 20260507053049 | 39 | 5 | 0.0 | 0.0 | 0.00 | 0.00 | 0.00 | 62 | 975.9 |
| 20260507051547 | 40 | 5 | 0.0 | 0.0 | 0.00 | 0.00 | 0.00 | 61 | 976.0 |
| 20260507050044 | 40 | 5 | 0.0 | 0.0 | 0.00 | 0.00 | 0.00 | 65 | 976.1 |
| 20260507044554 | 41 | 5 | 0.0 | 0.0 | 0.00 | 0.00 | 0.00 | 55 | 976.1 |
| 20260507043056 | 42 | 5 | 0.0 | 0.0 | 0.00 | 0.00 | 0.00 | 51 | 976.2 |
| 20260507041542 | 43 | 5 | 0.0 | 0.0 | 0.00 | 0.00 | 0.00 | 48 | 976.3 |
| 20260507040042 | 43 | 5 | 0.0 | 0.0 | 0.00 | 0.00 | 0.00 | 48 | 976.5 |
| 20260507034542 | 44 | 5 | 0.0 | 0.0 | 0.00 | 0.00 | 0.00 | 47 | 976.5 |
| 20260507033041 | 44 | 5 | 0.0 | 0.0 | 0.00 | 0.00 | 0.00 | 47 | 976.6 |
| 20260507031545 | 45 | 5 | 0.0 | 0.0 | 0.00 | 0.00 | 0.00 | 46 | 976.8 |
| 20260507030042 | 46 | 6 | 0.0 | 0.0 | 0.00 | 0.00 | 0.00 | 45 | 976.7 |
| 20260507024542 | 46 | 6 | 0.0 | 0.0 | 0.00 | 0.00 | 0.00 | 45 | 976.7 |
| 20260507023039 | 46 | 6 | 0.0 | 0.9 | 0.00 | 0.00 | 0.00 | 45 | 976.7 |
| 20260507021540 | 47 | 6 | 0.0 | 0.0 | 0.00 | 0.00 | 0.00 | 43 | 976.6 |
| 20260507020048 | 48 | 360 | 0.0 | 0.0 | 0.00 | 0.00 | 0.00 | 42 | 976.6 |
| 20260507014538 | 49 | 360 | 0.0 | 2.6 | 0.00 | 0.00 | 0.00 | 41 | 976.4 |
| 20260507013038 | 49 | 360 | 0.0 | 0.0 | 0.00 | 0.00 | 0.00 | 40 | 976.5 |
| 20260507011545 | 50 | 360 | 0.0 | 3.5 | 0.00 | 0.00 | 0.00 | 40 | 976.5 |
| 20260507010037 | 51 | 360 | 1.7 | 5.2 | 0.00 | 0.00 | 0.00 | 38 | 976.5 |
| 20260507004535 | 52 | 360 | 1.7 | 6.1 | 0.00 | 0.00 | 0.00 | 37 | 976.5 |
| 20260507003036 | 53 | 360 | 2.6 | 7.0 | 0.00 | 0.00 | 0.00 | 37 | 976.6 |
| 20260507001603 | 53 | 360 | 5.2 | 14.8 | 0.00 | 0.00 | 0.00 | 36 | 976.6 |
| 20260507000041 | 53 | 360 | 6.1 | 11.3 | 0.00 | 0.00 | 0.00 | 36 | 976.7 |
| 20260506234533 | 53 | 360 | 4.3 | 13.0 | 0.00 | 0.00 | 0.00 | 36 | 976.7 |
| 20260506233033 | 54 | 4 | 6.1 | 13.0 | 0.00 | 0.00 | 0.00 | 34 | 976.9 |
| 20260506231533 | 53 | 360 | 4.3 | 11.3 | 0.00 | 0.00 | 0.00 | 37 | 976.8 |
| 20260506230050 | 54 | 360 | 9.6 | 17.4 | 0.00 | 0.00 | 0.00 | 34 | 977.0 |
| 20260506224532 | 54 | 360 | 9.6 | 17.4 | 0.00 | 0.00 | 0.00 | 34 | 977.1 |
| 20260506223033 | 54 | 6 | 10.4 | 19.1 | 0.00 | 0.00 | 0.00 | 33 | 976.8 |
| 20260506221530 | 54 | 5 | 8.7 | 19.1 | 0.00 | 0.00 | 0.00 | 35 | 977.0 |
| 20260506220035 | 54 | 6 | 8.7 | 18.2 | 0.00 | 0.00 | 0.00 | 34 | 976.9 |
| 20260506214527 | 54 | 6 | 9.6 | 19.1 | 0.00 | 0.00 | 0.00 | 36 | 977.1 |
| 20260506213026 | 53 | 6 | 6.1 | 14.8 | 0.00 | 0.00 | 0.00 | 38 | 977.0 |
| 20260506211525 | 53 | 6 | 7.8 | 18.2 | 0.00 | 0.00 | 0.00 | 37 | 977.2 |
| 20260506210044 | 53 | 360 | 11.3 | 17.4 | 0.00 | 0.00 | 0.00 | 35 | 977.4 |
| 20260506204523 | 53 | 360 | 10.4 | 19.1 | 0.00 | 0.00 | 0.00 | 39 | 977.6 |
| 20260506203021 | 52 | 6 | 9.6 | 16.5 | 0.00 | 0.00 | 0.00 | 38 | 977.9 |
| 20260506201522 | 52 | 6 | 7.0 | 15.6 | 0.00 | 0.00 | 0.00 | 41 | 977.9 |
| 20260506200018 | 52 | 5 | 6.1 | 13.0 | 0.00 | 0.00 | 0.00 | 42 | 977.9 |
| 20260506194518 | 50 | 6 | 7.8 | 15.6 | 0.00 | 0.00 | 0.00 | 42 | 978.1 |
| 20260506193025 | 51 | 360 | 10.4 | 18.2 | 0.00 | 0.00 | 0.00 | 45 | 978.0 |
| 20260506191515 | 52 | 5 | 7.8 | 14.8 | 0.00 | 0.00 | 0.00 | 42 | 978.1 |
| 20260506190014 | 51 | 7 | 8.7 | 15.6 | 0.00 | 0.00 | 0.00 | 40 | 978.3 |
| 20260506184511 | 50 | 5 | 7.0 | 20.0 | 0.00 | 0.00 | 0.00 | 43 | 978.2 |
| 20260506183009 | 50 | 360 | 10.4 | 19.1 | 0.00 | 0.00 | 0.00 | 41 | 978.4 |
| 20260506181511 | 49 | 360 | 4.3 | 15.6 | 0.00 | 0.00 | 0.00 | 45 | 978.5 |
| 20260506180010 | 49 | 360 | 7.0 | 20.0 | 0.00 | 0.00 | 0.00 | 44 | 978.6 |
| 20260506174507 | 50 | 6 | 8.7 | 15.6 | 0.00 | 0.00 | 0.00 | 42 | 978.8 |
| 20260506173110 | 49 | 360 | 7.0 | 13.0 | 0.00 | 0.00 | 0.00 | 45 | 978.9 |
| 20260506171504 | 48 | 360 | 10.4 | 20.9 | 0.00 | 0.00 | 0.00 | 43 | 978.8 |
| 20260506170003 | 48 | 360 | 10.4 | 20.0 | 0.00 | 0.00 | 0.00 | 43 | 978.9 |
| 20260506164509 | 47 | 360 | 10.4 | 16.5 | 0.00 | 0.00 | 0.00 | 43 | 978.9 |
| 20260506163111 | 48 | 360 | 9.6 | 16.5 | 0.00 | 0.00 | 0.00 | 46 | 978.9 |
| 20260506161559 | 47 | 360 | 10.4 | 18.2 | 0.00 | 0.00 | 0.00 | 46 | 978.8 |
| 20260506160122 | 47 | 360 | 4.3 | 12.2 | 0.00 | 0.00 | 0.00 | 50 | 978.8 |
| 20260506154559 | 47 | 360 | 7.8 | 17.4 | 0.00 | 0.00 | 0.00 | 47 | 978.7 |
| 20260506153055 | 47 | 6 | 5.2 | 13.0 | 0.00 | 0.00 | 0.00 | 47 | 978.5 |
| 20260506151557 | 47 | 4 | 4.3 | 10.4 | 0.00 | 0.00 | 0.00 | 50 | 978.6 |
| 20260506144551 | 46 | 4 | 5.2 | 10.4 | 0.00 | 0.00 | 0.00 | 50 | 978.6 |
| 20260506143049 | 46 | 6 | 2.6 | 10.4 | 0.00 | 0.00 | 0.00 | 52 | 978.4 |
| 20260506141546 | 45 | 6 | 4.3 | 8.7 | 0.00 | 0.00 | 0.00 | 49 | 978.3 |
| 20260506140043 | 44 | 6 | 4.3 | 13.9 | 0.00 | 0.00 | 0.00 | 51 | 978.4 |